AirNav   Air Wisconsin Up To $57,000 Bonus
 
 1126 users online  

1C5 Bolingbrook's Clow International Airport
Bolingbrook, Illinois, USA

GOING TO BOLINGBROOK?


FAA INFORMATION EFFECTIVE 31 DECEMBER 2020

Location

FAA Identifier: 1C5
Lat/Long: 41-41-45.3000N 088-07-46.2000W
41-41.755000N 088-07.770000W
41.6959167,-88.1295000
(estimated)
Elevation: 674.9 ft. / 206 m (estimated)
Variation: 04W (2020)
Time zone: UTC -6 (UTC -5 during Daylight Saving Time)
Zip code: 60490

Airport Operations

Airport use: Open to the public
Activation date: 03/1967
Control tower: no
ARTCC: CHICAGO CENTER
FSS: KANKAKEE FLIGHT SERVICE STATION
NOTAMs facility: IKK (NOTAM-D service available)
Attendance: 0700-1800
Pattern altitude: 1504.9 ft. MSL
Wind indicator: lighted
Segmented circle: no
Lights: MIRL RY 18/36 PRESET LOW INTST DUSK-DAWN TO INCR INTST - CTAF
Beacon: white-green (lighted land airport)
Operates sunset to sunrise.

Airport Communications

CTAF: 122.9
CHICAGO APPROACH: 119.35
CHICAGO DEPARTURE: 119.35
IC: 119.35
WX AWOS-3 at LOT (5 nm S): 118.525 (815-588-4802)
WX AWOS-3 at JOT (11 nm S): 119.975 (815-730-9560)
WX ASOS at DPA (14 nm NW): PHONE 630-587-3668
WX ASOS at ARR (16 nm W): PHONE 630-466-5622
WX AWOS-3 at 06C (18 nm N): 128.275 ((847) 895-2887)
WX ASOS at MDW (18 nm E): PHONE 773-884-4424
WX ASOS at ORD (20 nm NE): PHONE 773-462-0118

Nearby radio navigation aids

VOR radial/distance  VOR name  Freq  Var
JOTr041/12.3JOLIET VOR/DME112.3002E
DPAr138/15.3DUPAGE VOR/DME108.4002E
CGTr292/27.4CHICAGO HEIGHTS VORTAC114.2002E
EONr327/29.8PEOTONE VORTAC113.2002E
OBKr196/32.5NORTHBROOK VOR/DME113.0002W

Airport Services

Fuel available: 100LL JET-A
Parking: hangars and tiedowns
Airframe service: MAJOR
Powerplant service: MAJOR
Bottled oxygen: NONE
Bulk oxygen: NONE

Runway Information

Runway 18/36

Dimensions: 3360 x 75 ft. / 1024 x 23 m
Surface: asphalt, in good condition
Weight bearing capacity: 
Single wheel: 12.5
Runway edge lights: medium intensity
RUNWAY 18  RUNWAY 36
Latitude: 41-42.031245N41-41.478230N
Longitude: 088-07.779947W088-07.758665W
Elevation: 674.9 ft.657.0 ft.
Traffic pattern: leftleft
Runway heading: 182 magnetic, 178 true002 magnetic, 358 true
Markings: nonprecision, in good conditionnonprecision, in good condition
Touchdown point: yes, no lightsyes, no lights

Airport Ownership and Management from official FAA records

Ownership: Publicly-owned
Owner: VILLAGE OF BOLINGBROOK
375 W BRIARCLIFF ROAD
BOLINGBROOK, IL 60440
Phone 630-226-8400
Manager: JOSEPH DE PAULO
130 S CLOW INTL PARKWAY
BOLINGBROOK, IL 60490
Phone 630-378-0479
EMAIL ADDRESS: JOEDEPAULO@GMAIL.COM

Airport Operational Statistics

Aircraft based on the field: 63
Single engine airplanes: 55
Multi engine airplanes: 7
Helicopters: 1
    
Aircraft operations: avg 137/day *
52% local general aviation
44% transient general aviation
4% air taxi
* for 12-month period ending 31 July 2020

Additional Remarks

A30A-18 USE RWY 18 IN CALM WND OR DRCT CROSSWINDS.
TWY 20 FT WIDE; LARGE ACFT CONSIDER BACK-TAXI.
NO TGL; FULL STOP LDG ONLY.
FOR CD CTC CHICAGO APCH AT 847-289-0926.
FLT SCHOOL OPS ONLY - 123.50.
WILDLIFE ON AND INVOF ARPT.
RESTAURANT ON ARPT.

Instrument Procedures

NOTE: All procedures below are presented as PDF files. If you need a reader for these files, you should download the free Adobe Reader.

NOT FOR NAVIGATION. Please procure official charts for flight.
FAA instrument procedures published for use from 31 December 2020 at 0901Z to 28 January 2021 at 0900Z.

 
IAPs - Instrument Approach Procedures
RNAV (GPS)-B   download (184KB)
VOR-A   download (191KB)
NOTE: Special Take-Off Minimums/Departure Procedures apply   download (369KB)

Other nearby airports with instrument procedures:

KLOT - Lewis University Airport (5 nm S)
KDPA - DuPage Airport (14 nm NW)
KARR - Aurora Municipal Airport (16 nm W)
KMDW - Chicago Midway International Airport (18 nm E)
KORD - Chicago O'Hare International Airport (20 nm NE)
 
Loc | Ops | Rwys | IFR | FBO | Links
Com | Nav | Svcs | Stats | Notes
Area around 1C5 (Bolingbrook's Clow International Airport)
 
Road maps at: MapQuest Bing Google
 
Aerial photo
WARNING: Photo may not be current or correct
Aerial photo of 1C5 (Bolingbrook's Clow International Airport)
Taken in 2016
looking southeast.

Do you have a better or more recent aerial photo of Bolingbrook's Clow International Airport that you would like to share? If so, please send us your photo.

 
Sectional chart

 
Airport distance calculator
Flying to Bolingbrook's Clow International Airport? Find the distance to fly.

From to 1C5

Sunrise and sunset
Times for 16-Jan-2021
 Local
(UTC-6)
 Zulu
(UTC)
Morning civil twilight06:4712:47
Sunrise07:1813:18
Sunset16:4722:47
Evening civil twilight17:1823:18

Current date and time
Zulu (UTC)  16-Jan-2021 20:18:50
Local (UTC-6)  16-Jan-2021 14:18:50
 
METAR
KLOT 
5nm S 
161955Z AUTO 30011G16KT 10SM OVC014 02/00 A2963 RMK AO2 P0001 T00170001
KJOT 
11nm S 
161955Z AUTO 30004KT 10SM OVC017 03/01 A2965 RMK AO2 T00310007
KDPA 
14nm N 
161952Z 31010KT 10SM OVC017 02/M01 A2962 RMK AO2 SLP037 T00221011
KARR 
16nm W 
161952Z 29009KT 10SM OVC018 01/M01 A2964 RMK AO2 SLP042 T00111011
K06C 
18nm N 
161955Z AUTO 31007KT 10SM OVC015 02/00 A2962 RMK AO2 T00221005
KMDW 
18nm E 
161953Z 31010KT 10SM OVC014 03/M01 A2961 RMK AO2 SLP037 T00281011
KORD 
19nm NE 
161951Z 30011KT 10SM OVC015 02/M01 A2961 RMK AO2 SLP032 T00221006
TAF
KDPA 
14nm N 
161720Z 1618/1718 32011KT P6SM BKN012 OVC025 FM162000 30011G18KT P6SM -SN BKN018 OVC025 TEMPO 1620/1623 5SM -SHSNRA BKN012 FM162300 30009KT P6SM BKN020 FM171200 29007KT 3SM -SN FEW008 OVC010 PROB30 1713/1718 1 1/2SM -SN BKN008
KMDW 
18nm E 
161500Z 1615/1718 31010KT 4SM -SN SCT008 OVC012 TEMPO 1615/1617 3SM -SN BKN010 FM161900 32011G18KT P6SM -SN FEW009 OVC012 TEMPO 1620/1623 6SM -SHSN FM162300 30010KT P6SM OVC015 FM171200 28007KT 3SM -SN OVC010
KORD 
19nm NE 
161500Z 1615/1718 32010KT 5SM -SN SCT008 OVC012 TEMPO 1615/1617 3SM -SN BKN010 FM161800 32011G18KT P6SM -SN FEW009 OVC012 TEMPO 1620/1623 6SM -SHSN FM162300 30010KT P6SM OVC015 FM171200 28007KT 3SM -SN OVC010
NOTAMs
Click for the latest NOTAMs
NOTAMs are issued by the DoD/FAA and will open in a separate window not controlled by AirNav.

 

 
 

FBO, Fuel Providers, and Aircraft Ground Support

  
 Business Name 
 
 Contact 
 
 Services / Description 
 
Fuel Prices
 
Comments
  
JW Aviation 630-759-1555
[web site]
[email]
Aviation fuel, Aircraft parking (ramp or tiedown), Hangars, Flight training, Aircraft rental, Aerial tours / aerial sightseeing, Pilot supplies, Flying club, ...

More info about JW Aviation
Phillips 66
100LL Jet A
SS $3.94 $3.40 
 Updated 15-Jan-2021
 
   2 read write
SS=Self service
Update Fuel Prices
 

Aviation Businesses, Services, and Facilities

  
 Business Name 
 
 Contact 
 
 Services / Description 
 
Distance
 
Comments
  
 Center for Aviation Services
630-914-5985
[web site]
[email]
Aircraft maintenance, Avionics sales and service, Aircraft modifications, Aircraft cleaning / washing / detailing, Aircraft parts, Aviation accessories, Aircraft sales / leasing / brokerage, ...

More info about Center for Aviation Services
on airport  
   write
 

Where to Eat: Catering, Restaurants, Food shops

  
 Business Name 
 
 Contact 
 
 Services / Description 
 
Distance
 
Comments
  
Charlie's at 1C5 630-771-0501
no information available

If you are affiliated with Charlie's at 1C5 and would like to show here your services, contact info, web link, logo, and more, click here
on airport  
   2 read write
 

Would you like to see your business listed on this page?

 If your business provides an interesting product or service to pilots, flight crews, aircraft, or users of the Bolingbrook's Clow International Airport, you should consider listing it here.  To start the listing process, click on the button below
 
Add a business
 

Other Pages about Bolingbrook's Clow International Airport

bbclowairport.com
 
Update a link
 
Copyright © AirNav, LLC. All rights reserved. Privacy Policy  Contact